When you browse on this site, cookies collect data to enhance your experience and personalize the content and advertising you see.
Visit our Privacy Policy to learn more. By continuing to use the site, you agree to this use of cookies and data.
  • In Czech Republic
  • List of Countries
  • For 7 days
  • Water Temperature
  • Weather Map
  • Weather Widgets
  • user-avatar
    Login

    Hourly Weather Cesvaine

    Today, 5 June, Friday

    Time Temperature Precipitation Wind Pressure Humidity
    00:00 +11°C° 0.2 mm 1 mps 736 mmHg 98%
    01:00 +11°C° 0.2 mm 1 mps 736 mmHg 98%
    02:00 +11°C° 0 mm 1 mps 736 mmHg 98%
    03:00 +11°C° 0.3 mm 1 mps 736 mmHg 98%
    04:00 +11°C° 0.3 mm 1 mps 736 mmHg 98%
    05:00 +11°C° 0.3 mm 1 mps 736 mmHg 97%
    06:00 +12°C° 0 mm 1 mps 736 mmHg 94%
    07:00 +13°C° 0 mm 1 mps 737 mmHg 91%
    08:00 +14°C° 0 mm 1 mps 737 mmHg 87%
    09:00 +15°C° 0.2 mm 2 mps 737 mmHg 79%
    10:00 +17°C° 0.2 mm 2 mps 737 mmHg 71%
    11:00 +18°C° 0.2 mm 3 mps 738 mmHg 63%
    12:00 +19°C° 0.1 mm 3 mps 738 mmHg 58%
    13:00 +20°C° 0.1 mm 3 mps 738 mmHg 52%
    14:00 +21°C° 0.1 mm 4 mps 738 mmHg 47%
    15:00 +21°C° 0 mm 4 mps 738 mmHg 47%
    16:00 +21°C° 0 mm 4 mps 737 mmHg 48%
    17:00 +21°C° 0 mm 4 mps 737 mmHg 48%
    18:00 +19°C° 0 mm 4 mps 737 mmHg 56%
    19:00 +18°C° 0 mm 3 mps 737 mmHg 64%
    20:00 +16°C° 0 mm 3 mps 737 mmHg 71%
    21:00 +15°C° 0 mm 4 mps 737 mmHg 72%
    22:00 +14°C° 0 mm 4 mps 736 mmHg 73%
    23:00 +14°C° 0 mm 4 mps 736 mmHg 74%

    Tomorrow, 6 June, Saturday

    Time Temperature Precipitation Wind Pressure Humidity
    00:00 +14°C° 0.2 mm 4 mps 736 mmHg 78%
    01:00 +14°C° 0.2 mm 5 mps 736 mmHg 82%
    02:00 +14°C° 0.2 mm 5 mps 736 mmHg 85%
    03:00 +14°C° 0.1 mm 4 mps 736 mmHg 89%
    04:00 +14°C° 0.1 mm 4 mps 736 mmHg 92%
    05:00 +16°C° 0.1 mm 3 mps 736 mmHg 95%
    06:00 +14°C° 0.4 mm 3 mps 736 mmHg 95%
    07:00 +14°C° 0.4 mm 3 mps 736 mmHg 96%
    08:00 +14°C° 0.4 mm 2 mps 736 mmHg 96%
    09:00 +16°C° 0.1 mm 3 mps 736 mmHg 87%
    10:00 +18°C° 0.1 mm 4 mps 737 mmHg 77%
    11:00 +20°C° 0.1 mm 5 mps 737 mmHg 67%
    12:00 +20°C° 0.3 mm 5 mps 738 mmHg 63%
    13:00 +21°C° 0.3 mm 6 mps 738 mmHg 60%
    14:00 +21°C° 0.3 mm 7 mps 739 mmHg 56%
    15:00 +20°C° 0 mm 6 mps 739 mmHg 54%
    16:00 +19°C° 0 mm 6 mps 740 mmHg 52%
    17:00 +17°C° 0 mm 5 mps 741 mmHg 50%
    18:00 +17°C° 0 mm 4 mps 741 mmHg 57%
    19:00 +16°C° 0 mm 3 mps 742 mmHg 63%
    20:00 +14°C° 0 mm 2 mps 743 mmHg 69%
    21:00 +13°C° 0 mm 2 mps 743 mmHg 73%
    22:00 +12°C° 0 mm 2 mps 744 mmHg 77%
    23:00 +9°C° 0 mm 2 mps 744 mmHg 81%

    Day after tomorrow, 7 June, Sunday

    Time Temperature Precipitation Wind Pressure Humidity
    00:00 +10°C° 0 mm 2 mps 744 mmHg 81%
    01:00 +10°C° 0 mm 3 mps 745 mmHg 81%
    02:00 +10°C° 0 mm 3 mps 745 mmHg 80%
    03:00 +11°C° 0 mm 3 mps 745 mmHg 80%
    04:00 +12°C° 0 mm 3 mps 745 mmHg 81%
    05:00 +12°C° 0 mm 3 mps 745 mmHg 81%
    06:00 +14°C° 0 mm 3 mps 746 mmHg 76%
    07:00 +17°C° 0 mm 3 mps 746 mmHg 71%
    08:00 +19°C° 0 mm 3 mps 747 mmHg 65%
    09:00 +20°C° 0 mm 3 mps 747 mmHg 61%
    10:00 +22°C° 0 mm 3 mps 748 mmHg 57%
    11:00 +24°C° 0 mm 2 mps 748 mmHg 52%
    12:00 +24°C° 0.2 mm 3 mps 748 mmHg 56%
    13:00 +24°C° 0.2 mm 3 mps 747 mmHg 59%
    14:00 +24°C° 0.2 mm 3 mps 747 mmHg 63%
    15:00 +24°C° 0.1 mm 3 mps 747 mmHg 61%
    16:00 +25°C° 0.1 mm 4 mps 746 mmHg 59%
    17:00 +25°C° 0.1 mm 4 mps 746 mmHg 57%
    18:00 +23°C° 0 mm 4 mps 746 mmHg 61%
    19:00 +22°C° 0 mm 4 mps 745 mmHg 66%
    20:00 +21°C° 0 mm 4 mps 745 mmHg 70%
    21:00 +20°C° 0.4 mm 4 mps 745 mmHg 77%
    22:00 +19°C° 0.4 mm 3 mps 745 mmHg 85%
    23:00 +18°C° 0.4 mm 3 mps 745 mmHg 92%

    8 June, Monday

    Time Temperature Precipitation Wind Pressure Humidity
    00:00 +18°C° 0.5 mm 3 mps 746 mmHg 94%
    01:00 +18°C° 0.5 mm 3 mps 746 mmHg 96%
    02:00 +18°C° 0.5 mm 3 mps 746 mmHg 97%
    03:00 +18°C° 0 mm 3 mps 746 mmHg 98%
    04:00 +18°C° 0 mm 3 mps 745 mmHg 98%
    05:00 +18°C° 0 mm 3 mps 745 mmHg 98%
    06:00 +19°C° 0 mm 3 mps 746 mmHg 95%
    07:00 +20°C° 0 mm 3 mps 746 mmHg 92%
    08:00 +21°C° 0 mm 3 mps 746 mmHg 89%
    09:00 +24°C° 0 mm 3 mps 746 mmHg 80%
    10:00 +26°C° 0 mm 3 mps 747 mmHg 71%
    11:00 +27°C° 0 mm 3 mps 747 mmHg 62%
    12:00 +28°C° 0.4 mm 3 mps 747 mmHg 61%
    13:00 +29°C° 0.4 mm 3 mps 746 mmHg 61%
    14:00 +29°C° 0.4 mm 3 mps 746 mmHg 60%
    15:00 +29°C° 0.9 mm 3 mps 746 mmHg 62%
    16:00 +29°C° 0.9 mm 2 mps 746 mmHg 64%
    17:00 +28°C° 0.9 mm 2 mps 746 mmHg 65%
    18:00 +27°C° 0.3 mm 2 mps 746 mmHg 72%
    19:00 +25°C° 0.3 mm 2 mps 746 mmHg 78%
    20:00 +24°C° 0.3 mm 1 mps 746 mmHg 84%
    21:00 +22°C° 0 mm 1 mps 746 mmHg 86%
    22:00 +21°C° 0 mm 1 mps 746 mmHg 88%
    23:00 +19°C° 0 mm 2 mps 746 mmHg 91%

    9 June, Tuesday

    Time Temperature Precipitation Wind Pressure Humidity
    00:00 +20°C° 0 mm 1 mps 746 mmHg 92%
    01:00 +19°C° 0 mm 1 mps 746 mmHg 94%
    02:00 +18°C° 0 mm 1 mps 746 mmHg 96%
    03:00 +19°C° 0 mm 1 mps 746 mmHg 95%
    04:00 +19°C° 0 mm 1 mps 746 mmHg 95%
    05:00 +19°C° 0 mm 1 mps 746 mmHg 95%
    06:00 +21°C° 0 mm 1 mps 746 mmHg 89%
    07:00 +21°C° 0 mm 2 mps 747 mmHg 83%
    08:00 +24°C° 0 mm 2 mps 747 mmHg 77%
    09:00 +26°C° 0 mm 2 mps 747 mmHg 67%
    10:00 +27°C° 0 mm 3 mps 747 mmHg 58%
    11:00 +29°C° 0 mm 3 mps 747 mmHg 48%
    12:00 +29°C° 0 mm 3 mps 747 mmHg 48%
    13:00 +29°C° 0 mm 3 mps 747 mmHg 48%
    14:00 +30°C° 0 mm 3 mps 747 mmHg 48%
    15:00 +29°C° 0 mm 2 mps 747 mmHg 51%
    16:00 +29°C° 0 mm 2 mps 747 mmHg 54%
    17:00 +29°C° 0 mm 2 mps 747 mmHg 56%
    18:00 +27°C° 0.7 mm 1 mps 747 mmHg 66%
    19:00 +25°C° 0.7 mm 1 mps 747 mmHg 76%
    20:00 +23°C° 0.7 mm 1 mps 747 mmHg 86%
    21:00 +22°C° 0 mm 1 mps 747 mmHg 87%
    22:00 +19°C° 0 mm 0 mps 747 mmHg 88%
    23:00 +18°C° 0 mm 0 mps 748 mmHg 89%

    10 June, Wednesday

    Time Temperature Precipitation Wind Pressure Humidity
    00:00 +18°C° 0 mm 0 mps 748 mmHg 90%
    01:00 +17°C° 0 mm 0 mps 748 mmHg 92%
    02:00 +19°C° 0 mm 1 mps 748 mmHg 94%
    03:00 +17°C° 0.3 mm 0 mps 748 mmHg 94%
    04:00 +17°C° 0.3 mm 0 mps 748 mmHg 94%
    05:00 +18°C° 0.3 mm 0 mps 749 mmHg 94%
    06:00 +19°C° 0.3 mm 0 mps 749 mmHg 89%
    07:00 +23°C° 0.3 mm 1 mps 749 mmHg 84%
    08:00 +24°C° 0.3 mm 1 mps 749 mmHg 79%
    09:00 +26°C° 0.9 mm 1 mps 749 mmHg 75%
    10:00 +27°C° 0.9 mm 1 mps 749 mmHg 70%
    11:00 +28°C° 0.9 mm 1 mps 749 mmHg 66%
    12:00 +29°C° 0.1 mm 1 mps 749 mmHg 61%
    13:00 +29°C° 0.1 mm 1 mps 749 mmHg 57%
    14:00 +30°C° 0.1 mm 1 mps 748 mmHg 52%
    15:00 +29°C° 0.4 mm 1 mps 748 mmHg 59%
    16:00 +28°C° 0.4 mm 1 mps 748 mmHg 66%
    17:00 +27°C° 0.4 mm 2 mps 748 mmHg 73%
    18:00 +25°C° 0.4 mm 2 mps 748 mmHg 78%
    19:00 +24°C° 0.4 mm 2 mps 748 mmHg 84%
    20:00 +23°C° 0.4 mm 2 mps 748 mmHg 89%
    21:00 +21°C° 0.6 mm 2 mps 748 mmHg 91%
    22:00 +21°C° 0.6 mm 1 mps 748 mmHg 93%
    23:00 +20°C° 0.6 mm 1 mps 749 mmHg 95%
    Show more